sat.trackr.live / text

‹ back to catalog

ONEWEB-0346

NORAD 49212 · 2021-083AC

PAYLOAD ACTIVE UNKNOWN

§ Identity

Operator
Country
UK
Launch date
2021-09-14
Launch site
TYMSC
Launch vehicle
Mass (kg)
RCS (m²)

Purposes: comms

External: N2YO · Heavens-Above · Gunter

§ Orbital elements

Epoch: 2026-09-19T21:57:41.486400Z

Period
109.20 min
Inclination
87.9164°
Eccentricity
0.0002426
Mean motion
13.18687586 rev/d
Perigee alt
1,187.9 km
Apogee alt
1,191.6 km
Semi-major
7,567.9 km
B*
-1.0757e-4
RAAN
316.6335°
Arg perigee
108.7473°
Mean anomaly
251.3923°
Rev number
24,246

§ Raw data

ONEWEB-03461 49212U 21083AC  26262.91506350 -.00000029  00000+0 -10757-3 0  99942 49212  87.9164 316.6335 0002426 108.7473 251.3923 13.18687586242462

JSON: /api/v1/satellites/49212 · /tle

For live sub-satellite position, see the globe view (requires WebGL).

§ Visibility from observer

Set your observer location to see the next 7 days of passes ≥ 10°. The values pass through the URL so the page stays shareable.

No JS? Fill the form by hand. The geolocation button needs JavaScript.